Change the Weather History Date:

Thursday, August 29, 2013

  Actual Average Record
Temperature  
Mean Temperature 80 °F -  
Max Temperature 92 °F 82 °F 98 °F (2003)
Min Temperature 69 °F 65 °F 66 °F (2005)
Cooling Degree Days 16    
Growing Degree Days 30 (Base 50)    
Moisture  
Dew Point 65 °F    
Average Humidity 60    
Maximum Humidity 89    
Minimum Humidity 22    
Precipitation  
Precipitation 0.00 in 0.05 in - ()
Sea Level Pressure  
Sea Level Pressure 29.99 in    
Wind  
Wind Speed 4 mph ()    
Max Wind Speed 18 mph    
Max Gust Speed -    
Visibility 7.5 miles    
Events Rain , Thunderstorm    
Averages and records for this station are not official NWS values.
T = Trace of Precipitation, MM = Missing Value Source: Averaged Metar Reports

Daily Weather History Graph

Daily Weather History Graph

Search for Another Location

Airport or City:

Trip Planner

Search our weather history database for the weather conditions in past years. The results will help you decide how hot, cold, wet, or windy it might be!

Date:

Astronomy

Aug. 29, 2013 Rise Set
Actual Time 6:37 AM CEST 7:43 PM CEST
Civil Twilight 6:10 AM CEST 8:10 PM CEST
Nautical Twilight 5:37 AM CEST 8:43 PM CEST
Astronomical Twilight 5:04 AM CEST 9:16 PM CEST
Moon 12:19 AM CEST (8/29) 2:55 PM CEST (8/29)
Length of Visible Light 14h 00m
Length of Day
13h 06m
Last Quarter, 40% of the Moon is Illuminated
Aug 29
Last Quarter
Sep 5
New
Sep 12
First Quarter
Sep 19
Full
Sep 27
Last Quarter

Hourly Weather History & Observations

Time (CEST) Temp. Heat Index Dew Point Humidity Pressure Visibility Wind Dir Wind Speed Gust Speed Precip Events Conditions
12:55 AM 71.6 °F - 66.2 °F 83% 29.98 in - Calm Calm - N/A   Clear
1:55 AM 71.6 °F - 68.0 °F 88% 29.98 in - Calm Calm - N/A   Clear
2:00 AM 71 °F - 68 °F 87% 29.98 in 7 mi Calm Calm - -  
2:55 AM 71.6 °F - 68.0 °F 88% 29.98 in - Calm Calm - N/A   Clear
3:55 AM 69.8 °F - 64.4 °F 83% 29.98 in 6.2 mi Calm Calm - N/A   Partly Cloudy
4:55 AM 69.8 °F - 64.4 °F 83% 29.98 in 6.2 mi Calm Calm - N/A Rain , Thunderstorm Light Thunderstorms and Rain
5:55 AM 77.0 °F - 71.6 °F 83% 30.04 in 6.2 mi WNW 18.4 mph - N/A Rain Light Rain
6:55 AM 77.0 °F - 69.8 °F 78% 30.01 in 6.2 mi North 6.9 mph - N/A   Scattered Clouds
7:55 AM 77.0 °F - 69.8 °F 78% 29.98 in 6.2 mi East 3.5 mph - N/A   Scattered Clouds
8:00 AM 77 °F - 70 °F 73% 30.00 in 10 mi East 3.5 mph - -   Partly Cloudy
8:55 AM 80.6 °F 83.9 °F 69.8 °F 70% 29.98 in 6.2 mi East 3.5 mph - N/A   Partly Cloudy
9:55 AM 84.2 °F 84.4 °F 60.8 °F 45% 29.98 in 6.2 mi East 5.8 mph - N/A   Partly Cloudy
10:55 AM 86.0 °F 90.4 °F 69.8 °F 58% 30.01 in 6.2 mi WSW 5.8 mph - N/A   Partly Cloudy
11:55 AM 87.8 °F 90.4 °F 66.2 °F 49% 29.98 in - SW 4.6 mph - N/A   Clear
12:55 PM 89.6 °F 88.1 °F 57.2 °F 33% 29.98 in - WSW 8.1 mph - N/A   Clear
1:55 PM 91.4 °F 89.9 °F 57.2 °F 31% 29.98 in - WSW 8.1 mph - N/A   Clear
2:00 PM 91 °F - 57 °F 22% 29.99 in 14 mi WSW 8.1 mph - -   Scattered Clouds
2:55 PM 91.4 °F 90.7 °F 59.0 °F 34% 29.98 in - West 9.2 mph - N/A   Clear
3:55 PM 91.4 °F 90.7 °F 59.0 °F 34% 29.98 in - WSW 9.2 mph - N/A   Clear
4:55 PM 91.4 °F 92.1 °F 62.6 °F 38% 29.95 in - SSW 12.7 mph - N/A   Clear
5:55 PM 89.6 °F 87.7 °F 55.4 °F 31% 29.95 in - South 10.4 mph - N/A   Clear
6:55 PM 86.0 °F 84.9 °F 57.2 °F 37% 29.98 in - South 4.6 mph - N/A   Clear
7:55 PM 82.4 °F 81.7 °F 55.4 °F 39% 29.98 in - South 5.8 mph - N/A   Clear
8:00 PM 83 °F - 56 °F 29% 29.99 in 14 mi South 5.8 mph - -  
8:55 PM 80.6 °F 81.1 °F 59.0 °F 48% 30.01 in - SE 4.6 mph - N/A   Clear
9:55 PM 80.6 °F 86.2 °F 75.2 °F 84% 30.01 in 6.2 mi SE 5.8 mph - N/A   Partly Cloudy
10:55 PM 80.6 °F 87.1 °F 77.0 °F 89% 30.01 in 6.2 mi ESE 3.5 mph - N/A   Partly Cloudy
11:55 PM 78.8 °F - 75.2 °F 89% 30.01 in 6.2 mi ESE 4.6 mph - N/A   Partly Cloudy